Retour au catalogue

THORAD AGENA D DEB

ActifVLEO
NORAD 4435·DEBRIS·🇺🇸 United States

Lancé Sep 30, 1969 depuis Vandenberg Space Force Base

Loading…

Prochains Passages (prochaines 24 heures)

TLE

FraisSource: Space-Track

Époque: Sep 13, 2026, 23:42 UTC

1 04435U 69082EG  26256.98766367  .00007582  00000-0  69493-3 0  9990
2 04435  70.0091 104.4225 0010210 100.9416 259.2891 14.95228835980402

Suivez THORAD AGENA D DEB en temps réel avec AllMySat

Download on the App Store